Year,Month,Day,Hour,Minute,Value (Times are PST for temperature in C)
2016,09,30,00,00,7.90
2016,09,30,00,01,7.80
2016,09,30,00,02,7.80
2016,09,30,00,03,7.80
2016,09,30,00,04,7.70
2016,09,30,00,05,7.70
2016,09,30,00,06,7.70
2016,09,30,00,07,7.70
2016,09,30,00,08,7.70
2016,09,30,00,09,7.60
2016,09,30,00,10,7.60
2016,09,30,00,11,7.60
2016,09,30,00,12,7.60
2016,09,30,00,13,7.60
2016,09,30,00,14,7.50
2016,09,30,00,15,7.50
2016,09,30,00,16,7.50
2016,09,30,00,17,7.50
2016,09,30,00,18,7.50
2016,09,30,00,19,7.50
2016,09,30,00,20,7.50
2016,09,30,00,21,7.50
2016,09,30,00,22,7.40
2016,09,30,00,23,7.40
2016,09,30,00,24,7.40
2016,09,30,00,25,7.40
2016,09,30,00,26,7.40
2016,09,30,00,27,7.40
2016,09,30,00,28,7.40
2016,09,30,00,29,7.40
2016,09,30,00,30,7.40
2016,09,30,00,31,7.40
2016,09,30,00,32,7.40
2016,09,30,00,33,7.40
2016,09,30,00,34,7.40
2016,09,30,00,35,7.40
2016,09,30,00,36,7.40
2016,09,30,00,37,7.40
2016,09,30,00,38,7.40
2016,09,30,00,39,7.40
2016,09,30,00,40,7.30
2016,09,30,00,41,7.30
2016,09,30,00,42,7.30
2016,09,30,00,43,7.30
2016,09,30,00,44,7.30
2016,09,30,00,45,7.20
2016,09,30,00,46,7.20
2016,09,30,00,47,7.20
2016,09,30,00,48,7.20
2016,09,30,00,49,7.20
2016,09,30,00,50,7.20
2016,09,30,00,51,7.10
2016,09,30,00,52,7.10
2016,09,30,00,53,7.10
2016,09,30,00,54,7.10
2016,09,30,00,55,7.10
2016,09,30,00,56,7.10
2016,09,30,00,57,7.10
2016,09,30,00,58,7.10
2016,09,30,00,59,7.10
2016,09,30,01,00,7.10
2016,09,30,01,01,7.10
2016,09,30,01,02,7.10
2016,09,30,01,03,7.10
2016,09,30,01,04,7.10
2016,09,30,01,05,7.10
2016,09,30,01,06,7.10
2016,09,30,01,07,7.10
2016,09,30,01,08,7.10
2016,09,30,01,09,7.10
2016,09,30,01,10,7.00
2016,09,30,01,11,7.00
2016,09,30,01,12,7.00
2016,09,30,01,13,7.00
2016,09,30,01,14,7.00
2016,09,30,01,15,7.00
2016,09,30,01,16,7.00
2016,09,30,01,17,7.00
2016,09,30,01,18,7.00
2016,09,30,01,19,7.00
2016,09,30,01,20,7.00
2016,09,30,01,21,7.00
2016,09,30,01,22,7.00
2016,09,30,01,23,7.00
2016,09,30,01,24,7.00
2016,09,30,01,25,7.00
2016,09,30,01,26,6.90
2016,09,30,01,27,6.90
2016,09,30,01,28,6.90
2016,09,30,01,29,6.90
2016,09,30,01,30,6.90
2016,09,30,01,31,6.90
2016,09,30,01,32,6.90
2016,09,30,01,33,6.80
2016,09,30,01,34,6.80
2016,09,30,01,35,6.80
2016,09,30,01,36,6.80
2016,09,30,01,37,6.80
2016,09,30,01,38,6.80
2016,09,30,01,39,6.70
2016,09,30,01,40,6.70
2016,09,30,01,41,6.70
2016,09,30,01,42,6.70
2016,09,30,01,43,6.70
2016,09,30,01,44,6.70
2016,09,30,01,45,6.70
2016,09,30,01,46,6.70
2016,09,30,01,47,6.70
2016,09,30,01,48,6.70
2016,09,30,01,49,6.70
2016,09,30,01,50,6.80
2016,09,30,01,51,6.80
2016,09,30,01,52,6.80
2016,09,30,01,53,6.80
2016,09,30,01,54,6.80
2016,09,30,01,55,6.80
2016,09,30,01,56,6.70
2016,09,30,01,57,6.70
2016,09,30,01,58,6.70
2016,09,30,01,59,6.70
2016,09,30,02,00,6.70
2016,09,30,02,01,6.60
2016,09,30,02,02,6.60
2016,09,30,02,03,6.60
2016,09,30,02,04,6.60
2016,09,30,02,05,6.60
2016,09,30,02,06,6.50
2016,09,30,02,07,6.50
2016,09,30,02,08,6.60
2016,09,30,02,09,6.60
2016,09,30,02,10,6.60
2016,09,30,02,11,6.60
2016,09,30,02,12,6.60
2016,09,30,02,13,6.60
2016,09,30,02,14,6.60
2016,09,30,02,15,6.60
2016,09,30,02,16,6.60
2016,09,30,02,17,6.60
2016,09,30,02,18,6.60
2016,09,30,02,19,6.60
2016,09,30,02,20,6.60
2016,09,30,02,21,6.60
2016,09,30,02,22,6.60
2016,09,30,02,23,6.60
2016,09,30,02,24,6.60
2016,09,30,02,25,6.60
2016,09,30,02,26,6.60
2016,09,30,02,27,6.60
2016,09,30,02,28,6.60
2016,09,30,02,29,6.50
2016,09,30,02,30,6.50
2016,09,30,02,31,6.40
2016,09,30,02,32,6.40
2016,09,30,02,33,6.40
2016,09,30,02,34,6.40
2016,09,30,02,35,6.30
2016,09,30,02,36,6.30
2016,09,30,02,37,6.20
2016,09,30,02,38,6.20
2016,09,30,02,39,6.20
2016,09,30,02,40,6.20
2016,09,30,02,41,6.20
2016,09,30,02,42,6.10
2016,09,30,02,43,6.10
2016,09,30,02,44,6.10
2016,09,30,02,45,6.10
2016,09,30,02,46,6.10
2016,09,30,02,47,6.10
2016,09,30,02,48,6.10
2016,09,30,02,49,6.10
2016,09,30,02,50,6.10
2016,09,30,02,51,6.10
2016,09,30,02,52,6.10
2016,09,30,02,53,6.10
2016,09,30,02,54,6.10
2016,09,30,02,55,6.10
2016,09,30,02,56,6.10
2016,09,30,02,57,6.10
2016,09,30,02,58,6.10
2016,09,30,02,59,6.10
2016,09,30,03,00,6.10
2016,09,30,03,01,6.20
2016,09,30,03,02,6.20
2016,09,30,03,03,6.20
2016,09,30,03,04,6.20
2016,09,30,03,05,6.20
2016,09,30,03,06,6.20
2016,09,30,03,07,6.20
2016,09,30,03,08,6.10
2016,09,30,03,09,6.10
2016,09,30,03,10,6.10
2016,09,30,03,11,6.10
2016,09,30,03,12,6.10
2016,09,30,03,13,6.10
2016,09,30,03,14,6.00
2016,09,30,03,15,6.00
2016,09,30,03,16,6.00
2016,09,30,03,17,6.00
2016,09,30,03,18,5.90
2016,09,30,03,19,5.90
2016,09,30,03,20,5.90
2016,09,30,03,21,5.90
2016,09,30,03,22,5.90
2016,09,30,03,23,5.80
2016,09,30,03,24,5.80
2016,09,30,03,25,5.80
2016,09,30,03,26,5.80
2016,09,30,03,27,5.80
2016,09,30,03,28,5.80
2016,09,30,03,29,5.80
2016,09,30,03,30,5.70
2016,09,30,03,31,5.70
2016,09,30,03,32,5.70
2016,09,30,03,33,5.70
2016,09,30,03,34,5.70
2016,09,30,03,35,5.70
2016,09,30,03,36,5.70
2016,09,30,03,37,5.70
2016,09,30,03,38,5.70
2016,09,30,03,39,5.70
2016,09,30,03,40,5.70
2016,09,30,03,41,5.70
2016,09,30,03,42,5.70
2016,09,30,03,43,5.70
2016,09,30,03,44,5.70
2016,09,30,03,45,5.70
2016,09,30,03,46,5.70
2016,09,30,03,47,5.70
2016,09,30,03,48,5.70
2016,09,30,03,49,5.70
2016,09,30,03,50,5.70
2016,09,30,03,51,5.70
2016,09,30,03,52,5.70
2016,09,30,03,53,5.70
2016,09,30,03,54,5.70
2016,09,30,03,55,5.70
2016,09,30,03,56,5.70
2016,09,30,03,57,5.70
2016,09,30,03,58,5.70
2016,09,30,03,59,5.70
2016,09,30,04,00,5.70
2016,09,30,04,01,5.70
2016,09,30,04,02,5.70
2016,09,30,04,03,5.70
2016,09,30,04,04,5.70
2016,09,30,04,05,5.70
2016,09,30,04,06,5.70
2016,09,30,04,07,5.60
2016,09,30,04,08,5.60
2016,09,30,04,09,5.60
2016,09,30,04,10,5.60
2016,09,30,04,11,5.60
2016,09,30,04,12,5.60
2016,09,30,04,13,5.60
2016,09,30,04,14,5.50
2016,09,30,04,15,5.50
2016,09,30,04,16,5.50
2016,09,30,04,17,5.50
2016,09,30,04,18,5.50
2016,09,30,04,19,5.50
2016,09,30,04,20,5.50
2016,09,30,04,21,5.50
2016,09,30,04,22,5.60
2016,09,30,04,23,5.60
2016,09,30,04,24,5.60
2016,09,30,04,25,5.60
2016,09,30,04,26,5.60
2016,09,30,04,27,5.60
2016,09,30,04,28,5.60
2016,09,30,04,29,5.60
2016,09,30,04,30,5.60
2016,09,30,04,31,5.60
2016,09,30,04,32,5.60
2016,09,30,04,33,5.60
2016,09,30,04,34,5.60
2016,09,30,04,35,5.60
2016,09,30,04,36,5.60
2016,09,30,04,37,5.60
2016,09,30,04,38,5.60
2016,09,30,04,39,5.60
2016,09,30,04,40,5.60
2016,09,30,04,41,5.60
2016,09,30,04,42,5.50
2016,09,30,04,43,5.50
2016,09,30,04,44,5.40
2016,09,30,04,45,5.40
2016,09,30,04,46,5.40
2016,09,30,04,47,5.40
2016,09,30,04,48,5.30
2016,09,30,04,49,5.30
2016,09,30,04,50,5.30
2016,09,30,04,51,5.20
2016,09,30,04,52,5.20
2016,09,30,04,53,5.20
2016,09,30,04,54,5.20
2016,09,30,04,55,5.20
2016,09,30,04,56,5.10
2016,09,30,04,57,5.10
2016,09,30,04,58,5.10
2016,09,30,04,59,5.10
2016,09,30,05,00,5.20
2016,09,30,05,01,5.20
2016,09,30,05,02,5.20
2016,09,30,05,03,5.20
2016,09,30,05,04,5.20
2016,09,30,05,05,5.20
2016,09,30,05,06,5.30
2016,09,30,05,07,5.30
2016,09,30,05,08,5.30
2016,09,30,05,09,5.30
2016,09,30,05,10,5.30
2016,09,30,05,11,5.30
2016,09,30,05,12,5.30
2016,09,30,05,13,5.30
2016,09,30,05,14,5.30
2016,09,30,05,15,5.30
2016,09,30,05,16,5.30
2016,09,30,05,17,5.30
2016,09,30,05,18,5.30
2016,09,30,05,19,5.30
2016,09,30,05,20,5.30
2016,09,30,05,21,5.30
2016,09,30,05,22,5.30
2016,09,30,05,23,5.30
2016,09,30,05,24,5.20
2016,09,30,05,25,5.20
2016,09,30,05,26,5.20
2016,09,30,05,27,5.10
2016,09,30,05,28,5.10
2016,09,30,05,29,5.10
2016,09,30,05,30,5.00
2016,09,30,05,31,5.00
2016,09,30,05,32,5.00
2016,09,30,05,33,5.00
2016,09,30,05,34,4.90
2016,09,30,05,35,4.90
2016,09,30,05,36,4.90
2016,09,30,05,37,4.90
2016,09,30,05,38,4.80
2016,09,30,05,39,4.80
2016,09,30,05,40,4.80
2016,09,30,05,41,4.80
2016,09,30,05,42,4.80
2016,09,30,05,43,4.70
2016,09,30,05,44,4.70
2016,09,30,05,45,4.70
2016,09,30,05,46,4.60
2016,09,30,05,47,4.60
2016,09,30,05,48,4.60
2016,09,30,05,49,4.60
2016,09,30,05,50,4.60
2016,09,30,05,51,4.50
2016,09,30,05,52,4.50
2016,09,30,05,53,4.60
2016,09,30,05,54,4.60
2016,09,30,05,55,4.60
2016,09,30,05,56,4.60
2016,09,30,05,57,4.60
2016,09,30,05,58,4.70
2016,09,30,05,59,4.70
2016,09,30,06,00,4.70
2016,09,30,06,01,4.80
2016,09,30,06,02,4.80
2016,09,30,06,03,4.80
2016,09,30,06,04,4.80
2016,09,30,06,05,4.80
2016,09,30,06,06,4.80
2016,09,30,06,07,4.80
2016,09,30,06,08,4.80
2016,09,30,06,09,4.80
2016,09,30,06,10,4.80
2016,09,30,06,11,4.70
2016,09,30,06,12,4.70
2016,09,30,06,13,4.70
2016,09,30,06,14,4.60
2016,09,30,06,15,4.60
2016,09,30,06,16,4.60
2016,09,30,06,17,4.60
2016,09,30,06,18,4.60
2016,09,30,06,19,4.60
2016,09,30,06,20,4.60
2016,09,30,06,21,4.60
2016,09,30,06,22,4.60
2016,09,30,06,23,4.60
2016,09,30,06,24,4.60
2016,09,30,06,25,4.50
2016,09,30,06,26,4.50
2016,09,30,06,27,4.50
2016,09,30,06,28,4.60
2016,09,30,06,29,4.60
2016,09,30,06,30,4.60
2016,09,30,06,31,4.60
2016,09,30,06,32,4.70
2016,09,30,06,33,4.70
2016,09,30,06,34,4.60
2016,09,30,06,35,4.70
2016,09,30,06,36,4.60
2016,09,30,06,37,4.60
2016,09,30,06,38,4.60
2016,09,30,06,39,4.60
2016,09,30,06,40,4.60
2016,09,30,06,41,4.60
2016,09,30,06,42,4.60
2016,09,30,06,43,4.60
2016,09,30,06,44,4.60
2016,09,30,06,45,4.60
2016,09,30,06,46,4.60
2016,09,30,06,47,4.50
2016,09,30,06,48,4.50
2016,09,30,06,49,4.50
2016,09,30,06,50,4.40
2016,09,30,06,51,4.40
2016,09,30,06,52,4.40
2016,09,30,06,53,4.40
2016,09,30,06,54,4.30
2016,09,30,06,55,4.30
2016,09,30,06,56,4.30
2016,09,30,06,57,4.40
2016,09,30,06,58,4.40
2016,09,30,06,59,4.50
2016,09,30,07,00,4.50
2016,09,30,07,01,4.50
2016,09,30,07,02,4.60
2016,09,30,07,03,4.60
2016,09,30,07,04,4.60
2016,09,30,07,05,4.60
2016,09,30,07,06,4.70
2016,09,30,07,07,4.70
2016,09,30,07,08,4.70
2016,09,30,07,09,4.70
2016,09,30,07,10,4.70
2016,09,30,07,11,4.60
2016,09,30,07,12,4.60
2016,09,30,07,13,4.60
2016,09,30,07,14,4.60
2016,09,30,07,15,4.60
2016,09,30,07,16,4.70
2016,09,30,07,17,4.70
2016,09,30,07,18,4.70
2016,09,30,07,19,4.70
2016,09,30,07,20,4.70
2016,09,30,07,21,4.70
2016,09,30,07,22,4.70
2016,09,30,07,23,4.70
2016,09,30,07,24,4.70
2016,09,30,07,25,4.70
2016,09,30,07,26,4.70
2016,09,30,07,27,4.70
2016,09,30,07,28,4.60
2016,09,30,07,29,4.60
2016,09,30,07,30,4.60
2016,09,30,07,31,4.60
2016,09,30,07,32,4.60
2016,09,30,07,33,4.60
2016,09,30,07,34,4.60
2016,09,30,07,35,4.60
2016,09,30,07,36,4.60
2016,09,30,07,37,4.60
2016,09,30,07,38,4.70
2016,09,30,07,39,4.70
2016,09,30,07,40,4.70
2016,09,30,07,41,4.70
2016,09,30,07,42,4.70
2016,09,30,07,43,4.70
2016,09,30,07,44,4.80
2016,09,30,07,45,4.80
2016,09,30,07,46,4.80
2016,09,30,07,47,4.80
2016,09,30,07,48,4.90
2016,09,30,07,49,4.90
2016,09,30,07,50,4.90
2016,09,30,07,51,4.90
2016,09,30,07,52,4.90
2016,09,30,07,53,4.90
2016,09,30,07,54,5.00
2016,09,30,07,55,5.00
2016,09,30,07,56,5.00
2016,09,30,07,57,5.00
2016,09,30,07,58,5.10
2016,09,30,07,59,5.10
2016,09,30,08,00,5.10
2016,09,30,08,01,5.10
2016,09,30,08,02,5.20
2016,09,30,08,03,5.20
2016,09,30,08,04,5.20
2016,09,30,08,05,5.20
2016,09,30,08,06,5.30
2016,09,30,08,07,5.30
2016,09,30,08,08,5.30
2016,09,30,08,09,5.30
2016,09,30,08,10,5.40
2016,09,30,08,11,5.40
2016,09,30,08,12,5.50
2016,09,30,08,13,5.50
2016,09,30,08,14,5.60
2016,09,30,08,15,5.60
2016,09,30,08,16,5.60
2016,09,30,08,17,5.60
2016,09,30,08,18,5.70
2016,09,30,08,19,5.70
2016,09,30,08,20,5.80
2016,09,30,08,21,5.80
2016,09,30,08,22,5.80
2016,09,30,08,23,5.80
2016,09,30,08,24,5.80
2016,09,30,08,25,5.90
2016,09,30,08,26,5.90
2016,09,30,08,27,5.90
2016,09,30,08,28,5.90
2016,09,30,08,29,5.90
2016,09,30,08,30,6.00
2016,09,30,08,31,6.00
2016,09,30,08,32,6.10
2016,09,30,08,33,6.10
2016,09,30,08,34,6.10
2016,09,30,08,35,6.20
2016,09,30,08,36,6.20
2016,09,30,08,37,6.20
2016,09,30,08,38,6.30
2016,09,30,08,39,6.30
2016,09,30,08,40,6.40
2016,09,30,08,41,6.40
2016,09,30,08,42,6.40
2016,09,30,08,43,6.50
2016,09,30,08,44,6.50
2016,09,30,08,45,6.60
2016,09,30,08,46,6.70
2016,09,30,08,47,6.70
2016,09,30,08,48,6.70
2016,09,30,08,49,6.80
2016,09,30,08,50,6.80
2016,09,30,08,51,6.90
2016,09,30,08,52,7.00
2016,09,30,08,53,7.00
2016,09,30,08,54,7.10
2016,09,30,08,55,7.10
2016,09,30,08,56,7.20
2016,09,30,08,57,7.30
2016,09,30,08,58,7.40
2016,09,30,08,59,7.60
2016,09,30,09,00,7.70
2016,09,30,09,01,7.80
2016,09,30,09,02,7.90
2016,09,30,09,03,8.00
2016,09,30,09,04,8.00
2016,09,30,09,05,8.10
2016,09,30,09,06,8.10
2016,09,30,09,07,8.20
2016,09,30,09,08,8.30
2016,09,30,09,09,8.30
2016,09,30,09,10,8.40
2016,09,30,09,11,8.50
2016,09,30,09,12,8.60
2016,09,30,09,13,8.80
2016,09,30,09,14,8.90
2016,09,30,09,15,9.00
2016,09,30,09,16,9.10
2016,09,30,09,17,9.20
2016,09,30,09,18,9.30
2016,09,30,09,19,9.40
2016,09,30,09,20,9.50
2016,09,30,09,21,9.60
2016,09,30,09,22,9.70
2016,09,30,09,23,9.80
2016,09,30,09,24,9.90
2016,09,30,09,25,10.00
2016,09,30,09,26,10.10
2016,09,30,09,27,10.10
2016,09,30,09,28,10.20
2016,09,30,09,29,10.30
2016,09,30,09,30,10.30
2016,09,30,09,31,10.40
2016,09,30,09,32,10.40
2016,09,30,09,33,10.50
2016,09,30,09,34,10.50
2016,09,30,09,35,10.60
2016,09,30,09,36,10.60
2016,09,30,09,37,10.60
2016,09,30,09,38,10.70
2016,09,30,09,39,10.80
2016,09,30,09,40,10.80
2016,09,30,09,41,10.80
2016,09,30,09,42,10.90
2016,09,30,09,43,11.00
2016,09,30,09,44,11.10
2016,09,30,09,45,11.10
2016,09,30,09,46,11.20
2016,09,30,09,47,11.20
2016,09,30,09,48,11.20
2016,09,30,09,49,11.30
2016,09,30,09,50,11.30
2016,09,30,09,51,11.30
2016,09,30,09,52,11.30
2016,09,30,09,53,11.30
2016,09,30,09,54,11.40
2016,09,30,09,55,11.40
2016,09,30,09,56,11.50
2016,09,30,09,57,11.50
2016,09,30,09,58,11.60
2016,09,30,09,59,11.60
2016,09,30,10,00,11.70
2016,09,30,10,01,11.80
2016,09,30,10,02,11.80
2016,09,30,10,03,11.90
2016,09,30,10,04,11.90
2016,09,30,10,05,12.00
2016,09,30,10,06,12.10
2016,09,30,10,07,12.10
2016,09,30,10,08,12.20
2016,09,30,10,09,12.20
2016,09,30,10,10,12.20
2016,09,30,10,11,12.30
2016,09,30,10,12,12.30
2016,09,30,10,13,12.40
2016,09,30,10,14,12.40
2016,09,30,10,15,12.50
2016,09,30,10,16,12.60
2016,09,30,10,17,12.60
2016,09,30,10,18,12.70
2016,09,30,10,19,12.70
2016,09,30,10,20,12.70
2016,09,30,10,21,12.70
2016,09,30,10,22,12.70
2016,09,30,10,23,12.70
2016,09,30,10,24,12.70
2016,09,30,10,25,12.70
2016,09,30,10,26,12.70
2016,09,30,10,27,12.70
2016,09,30,10,28,12.70
2016,09,30,10,29,12.70
2016,09,30,10,30,12.70
2016,09,30,10,31,12.70
2016,09,30,10,32,12.60
2016,09,30,10,33,12.60
2016,09,30,10,34,12.70
2016,09,30,10,35,12.70
2016,09,30,10,36,12.70
2016,09,30,10,37,12.60
2016,09,30,10,38,12.60
2016,09,30,10,39,12.70
2016,09,30,10,40,12.60
2016,09,30,10,41,12.60
2016,09,30,10,42,12.60
2016,09,30,10,43,12.60
2016,09,30,10,44,12.60
2016,09,30,10,45,12.60
2016,09,30,10,46,12.60
2016,09,30,10,47,12.60
2016,09,30,10,48,12.60
2016,09,30,10,49,12.60
2016,09,30,10,50,12.60
2016,09,30,10,51,12.70
2016,09,30,10,52,12.70
2016,09,30,10,53,12.70
2016,09,30,10,54,12.70
2016,09,30,10,55,12.70
2016,09,30,10,56,12.70
2016,09,30,10,57,12.70
2016,09,30,10,58,12.70
2016,09,30,10,59,12.70
2016,09,30,11,00,12.60
2016,09,30,11,01,12.60
2016,09,30,11,02,12.50
2016,09,30,11,03,12.40
2016,09,30,11,04,12.40
2016,09,30,11,05,12.30
2016,09,30,11,06,12.30
2016,09,30,11,07,12.30
2016,09,30,11,08,12.30
2016,09,30,11,09,12.30
2016,09,30,11,10,12.30
2016,09,30,11,11,12.30
2016,09,30,11,12,12.20
2016,09,30,11,13,12.20
2016,09,30,11,14,12.20
2016,09,30,11,15,12.20
2016,09,30,11,16,12.10
2016,09,30,11,17,12.10
2016,09,30,11,18,12.10
2016,09,30,11,19,12.10
2016,09,30,11,20,12.10
2016,09,30,11,21,12.10
2016,09,30,11,22,12.10
2016,09,30,11,23,12.10
2016,09,30,11,24,12.10
2016,09,30,11,25,12.10
2016,09,30,11,26,12.10
2016,09,30,11,27,12.00
2016,09,30,11,28,12.00
2016,09,30,11,29,11.90
2016,09,30,11,30,11.90
2016,09,30,11,31,11.80
2016,09,30,11,32,11.80
2016,09,30,11,33,11.80
2016,09,30,11,34,11.80
2016,09,30,11,35,11.80
2016,09,30,11,36,11.80
2016,09,30,11,37,11.80
2016,09,30,11,38,11.70
2016,09,30,11,39,11.70
2016,09,30,11,40,11.70
2016,09,30,11,41,11.70
2016,09,30,11,42,11.70
2016,09,30,11,43,11.80
2016,09,30,11,44,11.80
2016,09,30,11,45,11.80
2016,09,30,11,46,11.90
2016,09,30,11,47,11.90
2016,09,30,11,48,11.80
2016,09,30,11,49,11.80
2016,09,30,11,50,11.80
2016,09,30,11,51,11.80
2016,09,30,11,52,11.80
2016,09,30,11,53,11.80
2016,09,30,11,54,11.80
2016,09,30,11,55,11.80
2016,09,30,11,56,11.80
2016,09,30,11,57,11.80
2016,09,30,11,58,11.90
2016,09,30,11,59,11.90
2016,09,30,12,00,11.90
2016,09,30,12,01,11.90
2016,09,30,12,02,11.90
2016,09,30,12,03,11.90
2016,09,30,12,04,12.00
2016,09,30,12,05,12.00
2016,09,30,12,06,12.10
2016,09,30,12,07,12.20
2016,09,30,12,08,12.20
2016,09,30,12,09,12.30
2016,09,30,12,10,12.30
2016,09,30,12,11,12.30
2016,09,30,12,12,12.30
2016,09,30,12,13,12.30
2016,09,30,12,14,12.40
2016,09,30,12,15,12.40
2016,09,30,12,16,12.40
2016,09,30,12,17,12.50
2016,09,30,12,18,12.40
2016,09,30,12,19,12.40
2016,09,30,12,20,12.50
2016,09,30,12,21,12.40
2016,09,30,12,22,12.40
2016,09,30,12,23,12.40
2016,09,30,12,24,12.40
2016,09,30,12,25,12.40
2016,09,30,12,26,12.40
2016,09,30,12,27,12.50
2016,09,30,12,28,12.40
2016,09,30,12,29,12.50
2016,09,30,12,30,12.50
2016,09,30,12,31,12.50
2016,09,30,12,32,12.50
2016,09,30,12,33,12.50
2016,09,30,12,34,12.60
2016,09,30,12,35,12.60
2016,09,30,12,36,12.60
2016,09,30,12,37,12.60
2016,09,30,12,38,12.60
2016,09,30,12,39,12.70
2016,09,30,12,40,12.70
2016,09,30,12,41,12.70
2016,09,30,12,42,12.60
2016,09,30,12,43,12.60
2016,09,30,12,44,12.60
2016,09,30,12,45,12.50
2016,09,30,12,46,12.50
2016,09,30,12,47,12.50
2016,09,30,12,48,12.50
2016,09,30,12,49,12.50
2016,09,30,12,50,12.60
2016,09,30,12,51,12.60
2016,09,30,12,52,12.60
2016,09,30,12,53,12.70
2016,09,30,12,54,12.70
2016,09,30,12,55,12.70
2016,09,30,12,56,12.80
2016,09,30,12,57,12.80
2016,09,30,12,58,12.90
2016,09,30,12,59,12.90
2016,09,30,13,00,12.90
2016,09,30,13,01,12.90
2016,09,30,13,02,12.90
2016,09,30,13,03,12.90
2016,09,30,13,04,12.90
2016,09,30,13,05,12.80
2016,09,30,13,06,12.80
2016,09,30,13,07,12.70
2016,09,30,13,08,12.70
2016,09,30,13,09,12.70
2016,09,30,13,10,12.60
2016,09,30,13,11,12.60
2016,09,30,13,12,12.60
2016,09,30,13,13,12.50
2016,09,30,13,14,12.40
2016,09,30,13,15,12.40
2016,09,30,13,16,12.40
2016,09,30,13,17,12.40
2016,09,30,13,18,12.40
2016,09,30,13,19,12.50
2016,09,30,13,20,12.60
2016,09,30,13,21,12.60
2016,09,30,13,22,12.70
2016,09,30,13,23,12.70
2016,09,30,13,24,12.80
2016,09,30,13,25,12.80
2016,09,30,13,26,12.90
2016,09,30,13,27,12.90
2016,09,30,13,28,12.90
2016,09,30,13,29,12.90
2016,09,30,13,30,12.80
2016,09,30,13,31,12.80
2016,09,30,13,32,12.70
2016,09,30,13,33,12.60
2016,09,30,13,34,12.60
2016,09,30,13,35,12.60
2016,09,30,13,36,12.60
2016,09,30,13,37,12.70
2016,09,30,13,38,12.80
2016,09,30,13,39,12.80
2016,09,30,13,40,12.80
2016,09,30,13,41,12.80
2016,09,30,13,42,12.80
2016,09,30,13,43,12.80
2016,09,30,13,44,12.90
2016,09,30,13,45,12.90
2016,09,30,13,46,12.90
2016,09,30,13,47,13.00
2016,09,30,13,48,13.10
2016,09,30,13,49,13.10
2016,09,30,13,50,13.20
2016,09,30,13,51,13.20
2016,09,30,13,52,13.20
2016,09,30,13,53,13.20
2016,09,30,13,54,13.20
2016,09,30,13,55,13.20
2016,09,30,13,56,13.20
2016,09,30,13,57,13.20
2016,09,30,13,58,13.20
2016,09,30,13,59,13.10
2016,09,30,14,00,13.20
2016,09,30,14,01,13.20
2016,09,30,14,02,13.20
2016,09,30,14,03,13.20
2016,09,30,14,04,13.30
2016,09,30,14,05,13.40
2016,09,30,14,06,13.40
2016,09,30,14,07,13.40
2016,09,30,14,08,13.30
2016,09,30,14,09,13.30
2016,09,30,14,10,13.20
2016,09,30,14,11,13.20
2016,09,30,14,12,13.30
2016,09,30,14,13,13.30
2016,09,30,14,14,13.30
2016,09,30,14,15,13.30
2016,09,30,14,16,13.30
2016,09,30,14,17,13.30
2016,09,30,14,18,13.30
2016,09,30,14,19,13.30
2016,09,30,14,20,13.30
2016,09,30,14,21,13.30
2016,09,30,14,22,13.30
2016,09,30,14,23,13.30
2016,09,30,14,24,13.30
2016,09,30,14,25,13.30
2016,09,30,14,26,13.40
2016,09,30,14,27,13.30
2016,09,30,14,28,13.30
2016,09,30,14,29,13.30
2016,09,30,14,30,13.30
2016,09,30,14,31,13.30
2016,09,30,14,32,13.30
2016,09,30,14,33,13.30
2016,09,30,14,34,13.30
2016,09,30,14,35,13.30
2016,09,30,14,36,13.30
2016,09,30,14,37,13.30
2016,09,30,14,38,13.40
2016,09,30,14,39,13.40
2016,09,30,14,40,13.40
2016,09,30,14,41,13.50
2016,09,30,14,42,13.50
2016,09,30,14,43,13.50
2016,09,30,14,44,13.50
2016,09,30,14,45,13.40
2016,09,30,14,46,13.30
2016,09,30,14,47,13.30
2016,09,30,14,48,13.20
2016,09,30,14,49,13.30
2016,09,30,14,50,13.30
2016,09,30,14,51,13.40
2016,09,30,14,52,13.50
2016,09,30,14,53,13.60
2016,09,30,14,54,13.70
2016,09,30,14,55,13.80
2016,09,30,14,56,13.80
2016,09,30,14,57,13.90
2016,09,30,14,58,13.90
2016,09,30,14,59,13.90
2016,09,30,15,00,13.90
2016,09,30,15,01,13.90
2016,09,30,15,02,13.90
2016,09,30,15,03,13.90
2016,09,30,15,04,13.80
2016,09,30,15,05,13.70
2016,09,30,15,06,13.70
2016,09,30,15,07,13.70
2016,09,30,15,08,13.60
2016,09,30,15,09,13.60
2016,09,30,15,10,13.60
2016,09,30,15,11,13.60
2016,09,30,15,12,13.60
2016,09,30,15,13,13.60
2016,09,30,15,14,13.60
2016,09,30,15,15,13.60
2016,09,30,15,16,13.60
2016,09,30,15,17,13.60
2016,09,30,15,18,13.60
2016,09,30,15,19,13.60
2016,09,30,15,20,13.60
2016,09,30,15,21,13.60
2016,09,30,15,22,13.60
2016,09,30,15,23,13.60
2016,09,30,15,24,13.60
2016,09,30,15,25,13.70
2016,09,30,15,26,13.70
2016,09,30,15,27,13.80
2016,09,30,15,28,13.80
2016,09,30,15,29,13.90
2016,09,30,15,30,14.00
2016,09,30,15,31,14.10
2016,09,30,15,32,14.20
2016,09,30,15,33,14.30
2016,09,30,15,34,14.30
2016,09,30,15,35,14.30
2016,09,30,15,36,14.30
2016,09,30,15,37,14.30
2016,09,30,15,38,14.20
2016,09,30,15,39,14.20
2016,09,30,15,40,14.10
2016,09,30,15,41,14.00
2016,09,30,15,42,13.90
2016,09,30,15,43,13.90
2016,09,30,15,44,13.90
2016,09,30,15,45,13.90
2016,09,30,15,46,13.90
2016,09,30,15,47,13.90
2016,09,30,15,48,14.00
2016,09,30,15,49,13.90
2016,09,30,15,50,13.90
2016,09,30,15,51,13.80
2016,09,30,15,52,13.70
2016,09,30,15,53,13.60
2016,09,30,15,54,13.40
2016,09,30,15,55,13.30
2016,09,30,15,56,13.20
2016,09,30,15,57,13.20
2016,09,30,15,58,13.20
2016,09,30,15,59,13.10
2016,09,30,16,00,13.00
2016,09,30,16,01,13.00
2016,09,30,16,02,12.90
2016,09,30,16,03,12.90
2016,09,30,16,04,12.90
2016,09,30,16,05,12.80
2016,09,30,16,06,12.80
2016,09,30,16,07,12.80
2016,09,30,16,08,12.80
2016,09,30,16,09,12.90
2016,09,30,16,10,12.90
2016,09,30,16,11,13.00
2016,09,30,16,12,13.10
2016,09,30,16,13,13.10
2016,09,30,16,14,13.20
2016,09,30,16,15,13.30
2016,09,30,16,16,13.30
2016,09,30,16,17,13.30
2016,09,30,16,18,13.30
2016,09,30,16,19,13.30
2016,09,30,16,20,13.30
2016,09,30,16,21,13.30
2016,09,30,16,22,13.30
2016,09,30,16,23,13.30
2016,09,30,16,24,13.30
2016,09,30,16,25,13.30
2016,09,30,16,26,13.30
2016,09,30,16,27,13.30
2016,09,30,16,28,13.20
2016,09,30,16,29,13.20
2016,09,30,16,30,13.20
2016,09,30,16,31,13.20
2016,09,30,16,32,13.20
2016,09,30,16,33,13.20
2016,09,30,16,34,13.20
2016,09,30,16,35,13.20
2016,09,30,16,36,13.20
2016,09,30,16,37,13.30
2016,09,30,16,38,13.30
2016,09,30,16,39,13.30
2016,09,30,16,40,13.30
2016,09,30,16,41,13.30
2016,09,30,16,42,13.40
2016,09,30,16,43,13.40
2016,09,30,16,44,13.40
2016,09,30,16,45,13.40
2016,09,30,16,46,13.50
2016,09,30,16,47,13.50
2016,09,30,16,48,13.60
2016,09,30,16,49,13.70
2016,09,30,16,50,13.70
2016,09,30,16,51,13.70
2016,09,30,16,52,13.70
2016,09,30,16,53,13.80
2016,09,30,16,54,13.80
2016,09,30,16,55,13.90
2016,09,30,16,56,13.90
2016,09,30,16,57,14.00
2016,09,30,16,58,14.00
2016,09,30,16,59,14.10
2016,09,30,17,00,14.10
2016,09,30,17,01,14.10
2016,09,30,17,02,14.20
2016,09,30,17,03,14.20
2016,09,30,17,04,14.20
2016,09,30,17,05,14.30
2016,09,30,17,06,14.30
2016,09,30,17,07,14.40
2016,09,30,17,08,14.40
2016,09,30,17,09,14.40
2016,09,30,17,10,14.40
2016,09,30,17,11,14.40
2016,09,30,17,12,14.40
2016,09,30,17,13,14.40
2016,09,30,17,14,14.40
2016,09,30,17,15,14.40
2016,09,30,17,16,14.40
2016,09,30,17,17,14.40
2016,09,30,17,18,14.40
2016,09,30,17,19,14.40
2016,09,30,17,20,14.40
2016,09,30,17,21,14.40
2016,09,30,17,22,14.40
2016,09,30,17,23,14.40
2016,09,30,17,24,14.40
2016,09,30,17,25,14.40
2016,09,30,17,26,14.50
2016,09,30,17,27,14.50
2016,09,30,17,28,14.50
2016,09,30,17,29,14.50
2016,09,30,17,30,14.50
2016,09,30,17,31,14.50
2016,09,30,17,32,14.40
2016,09,30,17,33,14.40
2016,09,30,17,34,14.30
2016,09,30,17,35,14.30
2016,09,30,17,36,14.30
2016,09,30,17,37,14.30
2016,09,30,17,38,14.30
2016,09,30,17,39,14.20
2016,09,30,17,40,14.10
2016,09,30,17,41,14.00
2016,09,30,17,42,13.90
2016,09,30,17,43,13.90
2016,09,30,17,44,13.80